EW9826 Weather Reports


time (UTC)temp
C
wind
direction
speed
KPH
gust
KPH
rain 1hr
cm
rain 24hr
cm
rain mn
cm
humidity
%
barometer
mb
20260905051101 17 294 6.4 19.3 0.00 0.28 0.00 79 1017.6
20260905044600 17 250 8.0 19.3 0.00 0.28 0.00 78 1017.3
20260905043101 17 278 6.4 19.3 0.00 0.28 0.00 78 1017.3
20260905042601 17 281 8.0 16.1 0.00 0.28 0.00 78 1017.3
20260905042101 17 290 8.0 14.5 0.00 0.28 0.00 78 1017.3
20260905041601 17 270 8.0 16.1 0.00 0.28 0.00 78 1017.2
20260905041102 17 292 8.0 14.5 0.00 0.28 0.00 78 1017.2
20260905033601 17 281 4.8 12.9 0.00 0.28 0.00 77 1016.9
20260905033101 17 267 4.8 11.3 0.00 0.28 0.00 77 1016.9
20260905031601 17 285 8.0 14.5 0.00 0.28 0.00 77 1016.9
20260905031102 17 275 4.8 16.1 0.00 0.28 0.00 77 1016.9
20260905030100 17 267 8.0 14.5 0.00 0.28 0.00 77 1016.8
20260905025600 17 262 6.4 12.9 0.00 0.28 0.00 76 1016.8
20260905022600 17 261 6.4 14.5 0.00 0.28 0.00 74 1016.6
20260905022102 17 273 6.4 11.3 0.00 0.28 0.00 74 1016.5
20260905012101 17 317 4.8 20.9 0.00 0.28 0.00 73 1016.3
20260905011600 17 271 9.7 19.3 0.00 0.28 0.00 73 1016.3
20260905011101 17 286 9.7 16.1 0.00 0.28 0.00 74 1016.3
20260905003101 18 297 8.0 14.5 0.00 0.28 0.00 73 1016.3
20260905002601 18 303 6.4 14.5 0.00 0.28 0.00 72 1016.3
20260905001101 18 286 9.7 19.3 0.00 0.28 0.00 73 1016.2
20260904234100 18 287 9.7 22.5 0.00 0.28 0.00 71 1015.9
20260904233600 18 281 9.7 20.9 0.00 0.28 0.00 71 1015.9
20260904231101 18 290 8.0 22.5 0.00 0.28 0.00 71 1015.8
20260904225101 18 284 9.7 14.5 0.00 0.28 0.00 70 1015.8
20260904224601 18 293 8.0 19.3 0.00 0.28 0.00 69 1015.8
20260904224101 18 286 11.3 19.3 0.00 0.28 0.00 69 1015.8
20260904222601 18 294 9.7 19.3 0.00 0.28 0.00 68 1015.7
20260904220100 18 295 9.7 19.3 0.00 0.28 0.00 69 1015.6
20260904215600 18 290 6.4 16.1 0.00 0.28 0.28 68 1015.4
20260904215100 18 285 12.9 22.5 0.00 0.28 0.28 67 1015.4
20260904214600 18 292 8.0 22.5 0.00 0.28 0.28 67 1015.4
20260904214101 18 320 14.5 27.4 0.00 0.28 0.28 67 1015.4
20260904211600 18 274 8.0 19.3 0.00 0.28 0.28 68 1015.3
20260904211100 18 280 9.7 27.4 0.00 0.28 0.28 68 1015.3
20260904210100 18 300 11.3 19.3 0.00 0.28 0.28 68 1015.2
20260904205559 18 293 9.7 19.3 0.00 0.28 0.28 69 1015.0
20260904195559 18 287 8.0 25.7 0.00 0.28 0.28 69 1014.8
20260904195101 18 267 14.5 22.5 0.00 0.28 0.28 69 1014.8
20260904194600 18 272 9.7 16.1 0.00 0.28 0.28 69 1014.8
20260904194100 18 296 11.3 19.3 0.00 0.28 0.28 69 1014.7
20260904193601 18 299 9.7 19.3 0.00 0.28 0.28 68 1014.7
20260904192101 18 288 12.9 24.1 0.00 0.28 0.28 68 1014.4
20260904185101 18 276 9.7 14.5 0.00 0.28 0.28 70 1014.2
20260904184559 18 286 8.0 19.3 0.00 0.28 0.28 70 1014.1
20260904183100 18 282 8.0 16.1 0.00 0.28 0.28 71 1013.8
20260904182559 18 293 9.7 19.3 0.00 0.28 0.28 71 1013.9
20260904180100 18 306 8.0 20.9 0.00 0.28 0.28 71 1013.8
20260904175600 18 289 9.7 20.9 0.00 0.28 0.28 71 1013.8
20260904174100 19 283 11.3 22.5 0.00 0.28 0.28 73 1013.5
20260904173600 19 299 9.7 22.5 0.00 0.28 0.28 73 1013.6
20260904173101 19 308 11.3 24.1 0.00 0.28 0.28 74 1013.5
20260904172559 19 280 8.0 19.3 0.00 0.28 0.28 75 1013.6
20260904172101 19 306 9.7 19.3 0.00 0.28 0.28 75 1013.3
20260904165600 19 293 9.7 19.3 0.00 0.28 0.28 73 1013.0
20260904164600 19 294 14.5 25.7 0.00 0.28 0.28 71 1013.1
20260904164100 19 289 16.1 27.4 0.00 0.28 0.28 73 1013.2
20260904163559 19 284 14.5 24.1 0.00 0.28 0.28 74 1012.9
20260904163100 19 273 11.3 22.5 0.00 0.28 0.28 74 1012.8
20260904162600 19 292 9.7 25.7 0.00 0.28 0.28 74 1012.8
20260904162100 19 290 17.7 32.2 0.00 0.28 0.28 74 1012.7
20260904161559 19 292 11.3 25.7 0.00 0.28 0.28 76 1012.7
20260904161101 20 294 16.1 29.0 0.00 0.28 0.28 76 1012.4
20260904154100 20 245 8.0 14.5 0.00 0.28 0.28 74 1012.2
20260904153559 20 267 11.3 24.1 0.00 0.28 0.28 75 1012.3
20260904153100 20 286 14.5 22.5 0.00 0.28 0.28 76 1012.5
20260904152559 20 284 14.5 25.7 0.00 0.28 0.28 76 1012.7
20260904150059 20 291 12.9 29.0 0.00 0.28 0.28 79 1012.2
20260904145600 20 280 9.7 22.5 0.00 0.28 0.28 80 1012.2
20260904142559 20 290 12.9 22.5 0.00 0.28 0.28 83 1012.0
20260904142100 20 262 11.3 20.9 0.00 0.28 0.28 82 1011.7
20260904141600 20 273 9.7 19.3 0.00 0.28 0.28 82 1011.7
20260904141101 20 281 11.3 22.5 0.00 0.28 0.28 83 1011.7
20260904140059 20 293 16.1 27.4 0.00 0.28 0.28 82 1011.6
20260904135600 20 272 14.5 29.0 0.00 0.28 0.28 82 1011.6
20260904135101 20 293 19.3 40.2 0.00 0.28 0.28 81 1011.7
20260904134600 20 288 8.0 32.2 0.00 0.28 0.28 82 1011.7
20260904133100 20 289 12.9 25.7 0.00 0.28 0.28 84 1011.2
20260904132559 20 273 14.5 29.0 0.00 0.28 0.28 85 1011.3
20260904132059 19 275 14.5 24.1 0.00 0.28 0.28 86 1011.2
20260904131559 19 269 11.3 24.1 0.00 0.28 0.28 86 1011.1
20260904131101 19 257 8.0 27.4 0.00 0.28 0.28 86 1011.1
20260904124559 19 261 9.7 24.1 0.00 0.28 0.28 85 1011.1
20260904124100 19 263 11.3 29.0 0.00 0.28 0.28 85 1010.7
20260904123600 19 280 11.3 27.4 0.03 0.28 0.28 85 1010.8
20260904123100 19 315 8.0 19.3 0.03 0.28 0.28 86 1010.7
20260904122559 19 257 11.3 24.1 0.05 0.28 0.28 87 1010.8
20260904121059 18 289 17.7 33.8 0.08 0.28 0.28 91 1010.8
20260904120059 18 266 11.3 22.5 0.10 0.28 0.28 93 1010.6
20260904115559 18 272 11.3 29.0 0.13 0.28 0.28 93 1010.6
20260904115059 18 271 14.5 27.4 0.13 0.28 0.28 93 1010.6
20260904113559 18 285 16.1 27.4 0.13 0.25 0.25 93 1010.3
20260904113100 18 269 11.3 19.3 0.15 0.25 0.25 93 1010.5
20260904112559 18 284 6.4 19.3 0.18 0.23 0.23 93 1010.2
20260904110059 18 278 9.7 20.9 0.18 0.18 0.18 92 1010.2
20260904105559 18 296 8.0 22.5 0.15 0.15 0.15 92 1010.2
20260904105100 18 275 8.0 19.3 0.15 0.15 0.15 92 1010.1
20260904104559 18 283 9.7 19.3 0.15 0.15 0.15 92 1010.2
20260904103100 18 306 11.3 19.3 0.10 0.10 0.10 87 1010.2
20260904102559 20 309 11.3 27.4 0.05 0.05 0.05 84 1010.1
20260904102100 21 307 17.7 32.2 0.00 0.00 0.00 86 1009.9
20260904093559 22 238 24.1 40.2 0.00 0.00 0.00 83 1009.6
20260904093100 22 251 20.9 38.6 0.00 0.00 0.00 83 1009.6
20260904090058 22 241 22.5 45.1 0.00 0.00 0.00 83 1009.6
20260904082558 22 237 17.7 41.8 0.00 0.00 0.00 83 1009.3
20260904082059 22 239 25.7 46.7 0.00 0.00 0.00 83 1009.3
20260904080059 21 230 25.7 46.7 0.00 0.00 0.00 84 1009.5
20260904075558 21 245 22.5 40.2 0.00 0.00 0.00 85 1009.3
20260904074559 21 228 19.3 46.7 0.00 0.00 0.00 85 1009.4
20260904074100 21 244 17.7 37.0 0.00 0.00 0.00 86 1009.5
20260904073558 21 244 19.3 46.7 0.00 0.00 0.00 85 1009.5
20260904073059 21 236 22.5 45.1 0.00 0.00 0.00 86 1009.8
20260904072559 21 249 22.5 40.2 0.00 0.00 0.00 86 1009.9
20260904072059 21 261 20.9 38.6 0.00 0.00 0.00 85 1009.9
20260904071558 21 236 19.3 46.7 0.00 0.00 0.00 85 1009.9
20260904071059 21 253 20.9 37.0 0.00 0.00 0.00 85 1009.9
20260904065559 21 250 20.9 49.9 0.00 0.00 0.00 84 1009.9
20260904062059 21 243 17.7 41.8 0.00 0.05 0.00 84 1009.8
20260904053558 21 258 20.9 45.1 0.00 0.10 0.00 85 1010.5
20260904052059 21 240 14.5 41.8 0.00 0.13 0.00 85 1010.5
20260904051559 21 240 19.3 48.3 0.00 0.13 0.00 85 1010.5